[[{"header":{"parameterUnit":"m.s-1","parameterCategory":1,"la1":30.2991,"la2":30.254,"lo1":-89.0895,"lo2":-89.0444,"dy":0.0017,"dx":0.0017,"nx":28,"ny":28,"refTime":"2023-08-01T09:00:00:Z","depth":0,"parameterNumber":2,"parameterNumberName":"U-component_of_WINDS"},"data":[0,0,0,0,0,0,0,0,0,0,0,0,0,0,0,0,0,0,0,0,0,0,0,0,0,0,0,0,0,0,0,0,0,0,0,0,0,0,0,0,0,0,0,0,0,0,0,0,0,0,0,0,0,0,0,0,0,0,0.9769,0.9769,0,0.9765,0.9765,0.9765,0.9744,0.9743,0.9743,0.9742,0.9736,0.9737,0.9737,0,0,0,0,0,0,0,0,0,0,0,0,0,0.9757,0.9757,0.9769,0.9769,0.9769,0.9765,0.9765,0.9765,0.9744,0.9743,0.9742,0.9742,0.9736,0.9737,0.9737,0,0,0,0,0,0,0,0,0,0,0,0,0,0.9758,0.9757,0.9769,0.9758,0.9757,0.9765,0.9765,0.9765,0.9744,0.9743,0.9742,0.9742,0.9736,0.9737,0.9737,0.9755,0,0,0.9738,0.9739,0,0,0,0,0,0,0,0,0.9758,0.9759,0.976,0.9759,0.9758,0.9754,0.9758,0.9762,0.9744,0.9749,0.9742,0.9741,0.9743,0.9743,0.9743,0.9755,0.9754,0.9739,0.9739,0.9739,0.9739,0,0,0,0,0,0,0,0.9758,0.9759,0.9768,0.976,0.9759,0.9753,0.9752,0.9759,0.975,0.9748,0.9747,0.9747,0.9742,0.9743,0.9743,0.9754,0.9739,0.9739,0.9739,0.9739,0.9777,0.9778,0,0,0,0,0,0,0.976,0.9759,0.9768,0.9768,0.9756,0.9753,0.9753,0.9756,0.975,0.9748,0.9747,0.9746,0.9743,0.9743,0.9743,0.9762,0.9739,0.9739,0.974,0.9777,0.9778,0.9778,0,0,0,0,0,0,0.976,0.9761,0.9768,0.9763,0.9763,0.9754,0.9758,0.9756,0.9757,0.9749,0.9747,0.975,0.9742,0.9742,0.9752,0.9761,0.974,0.974,0.9776,0.9777,0.9778,0.9801,0,0,0,0,0,0,0.9759,0.9761,0.9769,0.9763,0.9764,0.9778,0.9759,0.9757,0.9758,0.9756,0.9751,0.975,0.9741,0.9751,0.9752,0.9761,0.974,0.9775,0.9776,0.9778,0.9799,0.9802,0.9805,0,0,0,0,0,0.9759,0.9775,0.9769,0.977,0.9773,0.9778,0.9778,0.9769,0.9759,0.9766,0.976,0.975,0.976,0.9752,0.9753,0.9763,0.9774,0.9776,0.9778,0.9797,0.9802,0.9805,0,0,0,0,0,0,0.9782,0.9774,0.9767,0.9783,0.9781,0.9775,0.9783,0.9774,0.9775,0.9773,0.9761,0.976,0.9771,0.9768,0.9759,0.9779,0.9765,0.9767,0.978,0.9784,0.9787,0.9787,0.9741,0,0,0,0,0,0.9789,0.9795,0.9788,0.9801,0.9801,0.9792,0.9794,0.9787,0.9785,0.9784,0.9779,0.9777,0.978,0.9782,0.9784,0.9799,0.9796,0.9805,0.9809,0.9811,0.9813,0.9818,0.9821,0.9784,0.9784,0.9784,0,0,0.9803,0.98,0.9804,0.9806,0.9804,0.9809,0.9792,0.9799,0.9802,0.9785,0.9793,0.979,0.9786,0.9798,0.9803,0.9796,0.9823,0.9813,0.9815,0.9815,0.982,0.9823,0.9827,0.9785,0.9785,0.9784,0,0,0.9831,0.983,0.984,0.9839,0.9836,0.983,0.9832,0.9827,0.9823,0.9831,0.9818,0.9822,0.9827,0.9824,0.9824,0.9849,0.9839,0.985,0.9866,0.9871,0.9874,0.9877,0.9884,0.9887,0.9852,0.9852,0.9852,0,0.9849,0.9857,0.9847,0.9854,0.9854,0.9839,0.9849,0.9847,0.9845,0.9845,0.9838,0.9842,0.9839,0.9849,0.9855,0.9856,0.9857,0.985,0.9875,0.9877,0.9879,0.9886,0.9889,0.9853,0.9853,0.9853,0.9853,0,0.9878,0.9883,0.9892,0.989,0.9891,0.99,0.989,0.9892,0.9884,0.9878,0.9886,0.9881,0.9881,0.9883,0.9876,0.9891,0.9886,0.9877,0.9863,0.9885,0.989,0.9893,0.9855,0.9855,0.9854,0.9854,0,0,0.9921,0.9912,0.9915,0.9913,0.9908,0.9912,0.9919,0.9918,0.992,0.9919,0.9923,0.9927,0.9917,0.9917,0.9909,0.9914,0.9931,0.9903,0.9903,0.9907,0.9946,0.9952,0.9955,0.9925,0.9925,0.9926,0.9945,0,0.9946,0.9958,0.9948,0.9961,0.9964,0.995,0.9955,0.9952,0.9946,0.9948,0.9941,0.9944,0.9932,0.9931,0.9935,0.9929,0.9939,0.9927,0.9927,0.9927,0.9927,0.9958,0.9965,0.9984,0.9948,0.9948,0.9949,0,0.9978,0.9977,0.999,0.9983,0.9984,0.9989,0.9987,0.9989,0.9985,0.998,0.9978,0.9969,0.9973,0.996,0.9966,0.9958,0.9957,0.9954,0.9954,0.9953,0.9939,0.9957,0.999,0.9993,0.9952,0.9952,0.9952,0,1.0006,1.0008,1.0016,1.0015,1.0007,1.001,1.0007,1.0002,1.0001,0.9999,0.9999,0.9998,0.9997,0.9995,0.9985,0.9977,0.9991,0.9977,0.9986,0.9986,0.9989,0.9988,1.0021,0.999,0.999,0.999,0.999,0,1.0034,1.0043,1.0028,1.0033,1.004,1.0029,1.0037,1.0032,1.0027,1.0029,1.0016,1.0019,1.0005,1.0006,0.9997,1.0002,1.0002,0.9997,0.9995,0.9998,0.9998,0.9996,0.9994,0.9991,0.9991,0.9991,0.9991,0,1.0067,1.0058,1.0064,1.0055,1.0053,1.0059,1.0051,1.0054,1.0047,1.005,1.005,1.0039,1.0039,1.0028,1.0026,1.0021,1.0028,1.0024,1.0029,1.0027,1.0036,1.0034,1.0068,1.0071,1.0039,1.004,1.004,0,1.0085,1.0091,1.0082,1.0083,1.008,1.0081,1.0081,1.0069,1.0069,1.0063,1.0066,1.0065,1.0063,1.0063,1.0054,1.0052,1.0047,1.0058,1.0046,1.0048,1.0045,1.0044,1.0044,1.006,1.0061,1.0061,1.0062,0,1.0118,1.0113,1.0113,1.011,1.011,1.0108,1.0105,1.0106,1.0092,1.0093,1.0092,1.0091,1.0088,1.0086,1.0082,1.0077,1.0066,1.0065,1.0067,1.0069,1.0072,1.0069,1.0035,1.0065,1.0064,1.0064,1.0064,1.0064,1.0143,1.0146,1.014,1.014,1.0136,1.0133,1.0135,1.0128,1.0127,1.0124,1.0117,1.0117,1.011,1.0103,1.0099,1.0099,1.0092,1.0095,1.0096,1.0096,1.0097,1.0073,1.0098,1.0098,1.0098,1.0098,1.0098,0,1.0173,1.0168,1.0168,1.0164,1.0163,1.0154,1.0149,1.0149,1.0149,1.0144,1.0142,1.0141,1.0138,1.0129,1.0125,1.0126,1.0121,1.0126,1.0125,1.0124,1.0103,1.0102,1.013,1.013,1.013,1.013,1.013,1.013,1.0189,1.0194,1.0188,1.019,1.0185,1.0185,1.0183,1.0179,1.0175,1.0173,1.0171,1.0165,1.0158,1.0153,1.015,1.0148,1.0146,1.0152,1.0147,1.0129,1.0125,1.0122,1.0121,1.0152,1.0152,1.0167,1.0168,1.0168]},{"header":{"parameterUnit":"m.s-1","parameterCategory":1,"la1":30.2991,"la2":30.254,"lo1":-89.0895,"lo2":-89.0444,"dy":0.0017,"dx":0.0017,"nx":28,"ny":28,"refTime":"2023-08-01T09:00:00:Z","depth":0,"parameterNumber":3,"parameterNumberName":"V-component_of_WINDS"},"data":[0,0,0,0,0,0,0,0,0,0,0,0,0,0,0,0,0,0,0,0,0,0,0,0,0,0,0,0,0,0,0,0,0,0,0,0,0,0,0,0,0,0,0,0,0,0,0,0,0,0,0,0,0,0,0,0,0,0,3.661,3.6609,0,3.6564,3.6563,3.6563,3.6473,3.6471,3.647,3.6468,3.6422,3.6422,3.6422,0,0,0,0,0,0,0,0,0,0,0,0,0,3.6622,3.6622,3.661,3.6609,3.6609,3.6564,3.6563,3.6562,3.6473,3.6471,3.6469,3.6467,3.6421,3.6422,3.6422,0,0,0,0,0,0,0,0,0,0,0,0,0,3.66,3.6622,3.661,3.6559,3.6554,3.6564,3.6563,3.6562,3.6474,3.6471,3.6469,3.6466,3.6421,3.6422,3.6422,3.6479,0,0,3.6424,3.6425,0,0,0,0,0,0,0,0,3.6602,3.66,3.6567,3.6562,3.6557,3.6521,3.655,3.6534,3.6475,3.6504,3.6468,3.6465,3.6457,3.6455,3.6452,3.6477,3.6475,3.6424,3.6425,3.6425,3.6425,0,0,0,0,0,0,0,3.6603,3.6601,3.6592,3.6567,3.656,3.6538,3.6532,3.6547,3.6496,3.6502,3.6495,3.6491,3.6454,3.6451,3.645,3.6474,3.6424,3.6425,3.6425,3.6425,3.6541,3.6543,0,0,0,0,0,0,3.6612,3.6603,3.6593,3.659,3.6573,3.654,3.6534,3.6535,3.6496,3.6487,3.6493,3.6487,3.6452,3.6449,3.6448,3.6509,3.6425,3.6426,3.6426,3.6538,3.6541,3.6544,0,0,0,0,0,0,3.6613,3.6612,3.6595,3.6595,3.6591,3.6543,3.6546,3.6536,3.6533,3.6489,3.648,3.65,3.6449,3.6447,3.6471,3.6507,3.6426,3.6426,3.6535,3.6539,3.6543,3.6634,0,0,0,0,0,0,3.6613,3.6613,3.6634,3.6596,3.6591,3.6619,3.6548,3.6537,3.6534,3.6526,3.6493,3.6485,3.6447,3.6471,3.6472,3.6506,3.6427,3.6532,3.6537,3.6542,3.6628,3.6641,3.6652,0,0,0,0,0,3.6614,3.6662,3.6635,3.6634,3.6616,3.6621,3.6619,3.6574,3.6538,3.6558,3.6529,3.6486,3.6503,3.6474,3.6474,3.6509,3.6529,3.6535,3.6541,3.6623,3.6639,3.6652,0,0,0,0,0,0,3.6705,3.6656,3.6626,3.6663,3.6647,3.6606,3.6631,3.6593,3.6587,3.6579,3.6524,3.6518,3.6549,3.6532,3.65,3.6561,3.6509,3.6516,3.6571,3.6586,3.6598,3.66,3.6427,0,0,0,0,0,3.673,3.6738,3.6694,3.6731,3.6725,3.668,3.668,3.6647,3.6628,3.6621,3.6594,3.6578,3.658,3.6582,3.6581,3.6626,3.6616,3.665,3.6662,3.6672,3.6678,3.6698,3.6712,3.6564,3.6564,3.6564,0,0,3.678,3.6754,3.6763,3.6749,3.6733,3.6742,3.6674,3.6688,3.6694,3.6623,3.6644,3.6624,3.6602,3.6636,3.665,3.6623,3.6717,3.668,3.6688,3.6688,3.6706,3.672,3.6733,3.6568,3.6568,3.6567,0,0,3.6876,3.6858,3.6886,3.6871,3.6847,3.6817,3.6824,3.6789,3.6772,3.6792,3.6739,3.6746,3.675,3.6736,3.673,3.6821,3.678,3.6822,3.6885,3.6906,3.6918,3.6928,3.6958,3.697,3.6828,3.6829,3.6829,0,3.6942,3.6954,3.6905,3.6921,3.6916,3.6853,3.688,3.6868,3.6846,3.6844,3.6814,3.6816,3.6798,3.6827,3.6849,3.6846,3.6852,3.6825,3.692,3.6929,3.6938,3.6967,3.6979,3.6834,3.6833,3.6833,3.6832,0,3.7035,3.7044,3.707,3.7048,3.7046,3.7068,3.7023,3.7027,3.6994,3.6967,3.6987,3.6962,3.6954,3.6959,3.6928,3.6984,3.6967,3.693,3.6876,3.6958,3.6984,3.6995,3.6841,3.6839,3.6838,3.6836,0,0,3.7187,3.7138,3.7148,3.7137,3.7106,3.7112,3.7131,3.7123,3.7126,3.7113,3.7127,3.7132,3.7096,3.7089,3.7055,3.7074,3.7145,3.7033,3.7032,3.7053,3.7204,3.7231,3.7245,3.7119,3.712,3.7122,3.7205,0,3.7275,3.7303,3.726,3.7299,3.7306,3.7246,3.7262,3.7244,3.722,3.7222,3.7194,3.7198,3.7151,3.7146,3.7162,3.7133,3.7174,3.7127,3.713,3.713,3.7135,3.7258,3.7288,3.7367,3.7215,3.7217,3.7218,0,3.7381,3.7372,3.7411,3.7377,3.7378,3.7393,3.7382,3.7385,3.7364,3.7344,3.7336,3.7296,3.7312,3.7261,3.7281,3.725,3.7249,3.7235,3.7237,3.7234,3.7178,3.7258,3.7392,3.7403,3.7234,3.7232,3.7231,0,3.7486,3.7484,3.7506,3.7499,3.746,3.7472,3.7456,3.7432,3.743,3.742,3.7418,3.741,3.7406,3.7401,3.736,3.7327,3.7384,3.733,3.7367,3.7369,3.7381,3.7381,3.7515,3.7383,3.7383,3.7383,3.7383,0,3.7588,3.7614,3.7553,3.7567,3.7594,3.7544,3.7572,3.755,3.7529,3.7538,3.7486,3.7495,3.744,3.7443,3.7411,3.7432,3.7431,3.7415,3.7405,3.7418,3.742,3.7416,3.7408,3.7386,3.7385,3.7385,3.7384,0,3.7709,3.7669,3.7689,3.765,3.7641,3.7663,3.7629,3.764,3.7612,3.7623,3.7623,3.7578,3.7579,3.7537,3.753,3.7508,3.7542,3.7524,3.7549,3.7543,3.7581,3.7578,3.7716,3.7731,3.7592,3.7593,3.7594,0,3.7776,3.7794,3.7757,3.7758,3.7745,3.7749,3.7745,3.7697,3.7696,3.7673,3.7687,3.7683,3.7677,3.7681,3.7648,3.7642,3.7622,3.7671,3.762,3.7632,3.762,3.7619,3.762,3.7681,3.7683,3.7684,3.7685,0,3.7898,3.7877,3.7875,3.7865,3.7863,3.7854,3.7841,3.7845,3.7792,3.7794,3.7793,3.7789,3.7781,3.7777,3.7764,3.7748,3.7708,3.7702,3.7709,3.7722,3.7735,3.7727,3.7576,3.7698,3.7697,3.7696,3.7695,3.7695,3.7992,3.8005,3.7981,3.798,3.7965,3.7954,3.7962,3.7934,3.7933,3.7922,3.7894,3.7898,3.7876,3.7854,3.7841,3.7844,3.7819,3.7831,3.7834,3.7837,3.7844,3.7736,3.7841,3.7841,3.784,3.784,3.784,0,3.8111,3.8092,3.8091,3.8074,3.8073,3.8036,3.802,3.8021,3.8025,3.8008,3.8003,3.8002,3.7998,3.7965,3.7957,3.7965,3.7946,3.7965,3.7963,3.7959,3.7867,3.786,3.798,3.798,3.798,3.798,3.798,3.798,3.8172,3.8191,3.8168,3.8179,3.816,3.8163,3.8157,3.8146,3.8132,3.8133,3.813,3.8108,3.8084,3.8073,3.8068,3.8058,3.8057,3.8081,3.8065,3.7979,3.7966,3.7953,3.7946,3.8082,3.8082,3.8157,3.8158,3.8158]}]]